Home > Weather > Leawood > Past weeks

Flag for USA Past Weather in Leawood, Kansas, USA — Yesterday and Last 2 Weeks

Now
63 °F

Thundershowers. Passing clouds.


Feels Like: 63 °F
Forecast: 66 / 80 °F
Wind: 6 mph from West

Location: Johnson County Executive Airport

Current Time: May 25, 2016 at 4:22:04 AM

Latest Report: May 25, 2016 at 3:53 AM


Visibility: 10 mi

Pressure: 29.90 "Hg

Humidity: 90%

Dew Point: 60 °F

Location of LeawoodLocation

Past Weather in Leawood — Graph

°F

Leawood Temperature Yesterday

Maximum temperature yesterday: 77 °F (at 5:53 PM)
Minimum temperature yesterday: 60 °F (at 1:53 AM)
Average temperature yesterday: 68 °F

High & Low Weather Summary for the Past Weeks

 TemperatureHumidityPressure
High78 °F (May 10, 4:53 PM)100% (May 10, 5:53 AM)30.33 "Hg (May 10, 5:53 AM)
Low43 °F (May 15, 1:53 AM)32% (May 12, 5:53 PM)29.66 "Hg (May 10, 3:53 AM)
Average60 °F72%30.06 "Hg
* Reported May 10 3:53 AM — May 25 3:00 AM, Leawood, Weather by CustomWeather, © 2016

Note: Actual official high and low records may vary slightly from our data, if they occured in-between our weather recording intervals... More about our weather records

Advertising

Leawood Weather History for the Previous 24 Hours

Scroll right to see more
 ConditionsComfort  
Time TempWeatherWind HumidityBarometerVisibility
3:00 AM
Wed, May 25
63 °FThunderstorms. Overcast.5 mph93%29.96 "Hg7 mi
1:53 AM65 °FPassing clouds.7 mph94%29.88 "Hg10 mi
12:53 AM67 °FClear.8 mph90%29.88 "Hg10 mi
11:53 PM
Tue, May 24
68 °FClear.6 mph90%29.88 "Hg10 mi
10:53 PM71 °FClear.12 mph87%29.87 "Hg10 mi
9:53 PM73 °FPassing clouds.12 mph84%29.87 "Hg10 mi
8:53 PM74 °FPartly sunny.6 mph82%29.86 "Hg10 mi
7:53 PM75 °FPartly sunny.6 mph79%29.87 "Hg10 mi
6:53 PM77 °FSunny.7 mph71%29.88 "Hg10 mi
5:53 PM77 °FSunny.6 mph69%29.86 "Hg10 mi
4:53 PM76 °FSunny.13 mph69%29.86 "Hg10 mi
3:53 PM74 °FSunny.12 mph76%29.85 "Hg10 mi
2:53 PM74 °FPassing clouds.17 mph76%29.88 "Hg10 mi
1:53 PM73 °FSunny.14 mph74%29.90 "Hg10 mi
12:53 PM71 °FSunny.5 mph71%29.96 "Hg10 mi
11:53 AM70 °FSunny.7 mph79%29.93 "Hg10 mi
10:53 AM67 °FScattered clouds.9 mph87%29.96 "Hg10 mi
9:53 AM67 °FThundershowers. Partly sunny.9 mph90%29.98 "Hg10 mi
8:53 AM64 °FSunny.7 mph97%29.92 "Hg10 mi
7:53 AM62 °FFog.8 mph96%29.90 "Hg4 mi
6:59 AM62 °FThunderstorms. Fog.5 mph96%29.94 "Hg4 mi
5:53 AM62 °FPassing clouds.8 mph93%29.88 "Hg10 mi
4:53 AM62 °FOvercast.6 mph96%29.88 "Hg10 mi
Weather by CustomWeather, © 2016

See weather overviewHow to use our weather pages